KD0SBM Weather Reports


time (UTC)temp
C
wind
direction
speed
KPH
gust
KPH
rain 1hr
cm
rain 24hr
cm
rain mn
cm
humidity
%
barometer
mb
20260504040041 10 0 0.0 1.6 0.00 0.00 0.00 49 1002.8
20260504035522 11 0 0.0 0.0 0.00 0.00 0.00 49 1002.9
20260504035020 11 0 0.0 0.0 0.00 0.00 0.00 49 1003.1
20260504034554 11 0 0.0 1.6 0.00 0.00 0.00 48 1003.1
20260504034016 11 0 0.0 1.6 0.00 0.00 0.00 48 1003.2
20260504033518 11 0 0.0 0.0 0.00 0.00 0.00 47 1003.3
20260504033050 11 0 0.0 0.0 0.00 0.00 0.00 46 1003.3
20260504032517 11 0 0.0 0.0 0.00 0.00 0.00 46 1003.4
20260504032021 12 0 0.0 0.0 0.00 0.00 0.00 46 1003.4
20260504031536 12 0 0.0 0.0 0.00 0.00 0.00 45 1003.6
20260504031018 12 0 0.0 0.0 0.00 0.00 0.00 45 1003.6
20260504030516 12 0 0.0 0.0 0.00 0.00 0.00 44 1003.6
20260504030044 12 0 0.0 0.0 0.00 0.00 0.00 43 1003.6
20260504025518 12 0 0.0 0.0 0.00 0.00 0.00 43 1003.6
20260504025022 13 0 0.0 0.0 0.00 0.00 0.00 42 1003.7
20260504024536 13 0 0.0 0.0 0.00 0.00 0.00 42 1003.6
20260504024017 13 0 0.0 0.0 0.00 0.00 0.00 42 1003.7
20260504023519 13 0 0.0 1.6 0.00 0.00 0.00 41 1003.7
20260504023051 13 0 0.0 1.6 0.00 0.00 0.00 40 1003.7
20260504022519 14 0 0.0 0.0 0.00 0.00 0.00 39 1003.8
20260504022017 14 0 0.0 0.0 0.00 0.00 0.00 39 1003.7
20260504021538 15 0 0.0 1.6 0.00 0.00 0.00 37 1003.7
20260504021016 15 0 0.0 1.6 0.00 0.00 0.00 36 1003.6
20260504020518 15 0 0.0 1.6 0.00 0.00 0.00 36 1003.6
20260504020038 15 0 0.0 1.6 0.00 0.00 0.00 35 1003.7
20260504015516 16 0 0.0 3.2 0.00 0.00 0.00 35 1003.7
20260504015021 16 0 0.0 4.8 0.00 0.00 0.00 34 1003.6
20260504014546 16 0 0.0 4.8 0.00 0.00 0.00 34 1003.7
20260504014018 16 0 0.0 4.8 0.00 0.00 0.00 34 1003.8
20260504013518 17 0 0.0 4.8 0.00 0.00 0.00 33 1003.7
20260504013044 17 0 0.0 4.8 0.00 0.00 0.00 33 1003.8
20260504012517 17 0 0.0 4.8 0.00 0.00 0.00 32 1003.9
20260504012018 17 0 0.0 1.6 0.00 0.00 0.00 32 1003.8
20260504011538 17 0 0.0 1.6 0.00 0.00 0.00 31 1003.9
20260504011020 18 0 0.0 6.4 0.00 0.00 0.00 30 1003.9
20260504010518 18 250 0.0 6.4 0.00 0.00 0.00 30 1003.9
20260504010047 18 0 0.0 14.5 0.00 0.00 0.00 30 1003.9
20260504005520 18 0 1.6 14.5 0.00 0.00 0.00 29 1003.9
20260504005019 18 290 3.2 11.3 0.00 0.00 0.00 29 1004.0
20260504004546 18 281 4.8 9.7 0.00 0.00 0.00 29 1003.9
20260504004016 18 281 3.2 11.3 0.00 0.00 0.00 29 1003.8
20260504003518 18 0 3.2 16.1 0.00 0.00 0.00 28 1003.9
20260504003038 18 272 6.4 16.1 0.00 0.00 0.00 28 1003.8
20260504002518 19 238 3.2 12.9 0.00 0.00 0.00 28 1004.0
20260504002015 19 248 3.2 16.1 0.00 0.00 0.00 27 1004.0
20260504001537 20 200 4.8 16.1 0.00 0.00 0.00 27 1004.0
20260504001016 20 238 3.2 14.5 0.00 0.00 0.00 27 1004.0
20260504000516 20 257 4.8 20.9 0.00 0.00 0.00 26 1004.0
20260504000037 20 281 4.8 20.9 0.00 0.00 0.00 27 1004.0
20260503235516 20 254 8.0 20.9 0.00 0.00 0.00 25 1004.0
20260503235018 20 292 6.4 17.7 0.00 0.00 0.00 25 1003.9
20260503234542 21 242 4.8 16.1 0.00 0.00 0.00 26 1003.9
20260503234019 21 239 1.6 14.5 0.00 0.00 0.00 26 1004.0
20260503233522 21 256 4.8 19.3 0.00 0.00 0.00 24 1004.0
20260503233037 21 236 6.4 19.3 0.00 0.00 0.00 25 1004.0
20260503232516 21 260 6.4 17.7 0.00 0.00 0.00 25 1004.1
20260503232019 21 265 6.4 22.5 0.00 0.00 0.00 25 1004.2
20260503231538 21 0 6.4 22.5 0.00 0.00 0.00 26 1004.2
20260503231019 21 310 6.4 17.7 0.00 0.00 0.00 25 1004.2
20260503230517 21 210 8.0 20.9 0.00 0.00 0.00 25 1004.2
20260503230040 21 294 8.0 24.1 0.00 0.00 0.00 25 1004.2
20260503225516 21 273 6.4 24.1 0.00 0.00 0.00 26 1004.3
20260503225019 21 299 4.8 14.5 0.00 0.00 0.00 28 1004.2
20260503224537 22 307 6.4 14.5 0.00 0.00 0.00 26 1004.2
20260503224016 21 317 3.2 19.3 0.00 0.00 0.00 28 1004.3
20260503223516 21 350 4.8 20.9 0.00 0.00 0.00 29 1004.2
20260503223037 21 322 4.8 20.9 0.00 0.00 0.00 29 1004.3
20260503222518 21 274 3.2 20.9 0.00 0.00 0.00 26 1004.3
20260503222019 22 277 8.0 24.1 0.00 0.00 0.00 25 1004.3
20260503221541 21 272 8.0 24.1 0.00 0.00 0.00 27 1004.3
20260503221016 22 302 8.0 24.1 0.00 0.00 0.00 25 1004.5
20260503220521 22 326 8.0 17.7 0.00 0.00 0.00 27 1004.5
20260503220042 22 312 6.4 17.7 0.00 0.00 0.00 27 1004.4
20260503215518 22 27 4.8 17.7 0.00 0.00 0.00 25 1004.4
20260503215018 22 319 4.8 24.1 0.00 0.00 0.00 28 1004.5
20260503214538 22 293 11.3 24.1 0.00 0.00 0.00 27 1004.4
20260503214018 22 292 4.8 22.5 0.00 0.00 0.00 28 1004.3
20260503213516 22 329 6.4 22.5 0.00 0.00 0.00 27 1004.4
20260503213051 22 329 9.7 27.4 0.00 0.00 0.00 29 1004.5
20260503212517 22 279 11.3 27.4 0.00 0.00 0.00 26 1004.6
20260503212019 21 273 9.7 25.7 0.00 0.00 0.00 31 1004.6
20260503211537 21 317 11.3 25.7 0.00 0.00 0.00 28 1004.6
20260503211016 22 296 8.0 25.7 0.00 0.00 0.00 27 1004.7
20260503210519 22 355 6.4 20.9 0.00 0.00 0.00 29 1004.8
20260503210043 22 327 6.4 30.6 0.00 0.00 0.00 28 1004.9
20260503205516 22 262 12.9 38.6 0.00 0.00 0.00 24 1004.9
20260503205018 22 286 4.8 38.6 0.00 0.00 0.00 28 1004.9
20260503204550 22 309 11.3 25.7 0.00 0.00 0.00 26 1004.9
20260503204016 22 266 6.4 25.7 0.00 0.00 0.00 29 1004.9
20260503203519 22 260 6.4 22.5 0.00 0.00 0.00 30 1004.9
20260503203036 22 346 4.8 19.3 0.00 0.00 0.00 33 1005.0
20260503202519 22 317 9.7 37.0 0.00 0.00 0.00 26 1005.1
20260503202020 22 336 6.4 37.0 0.00 0.00 0.00 30 1005.2
20260503201617 22 40 14.5 37.0 0.00 0.00 0.00 26 1005.2
20260503201021 22 279 11.3 22.5 0.00 0.00 0.00 30 1005.2
20260503200517 22 328 8.0 27.4 0.00 0.00 0.00 33 1005.2
20260503200037 22 277 9.7 27.4 0.00 0.00 0.00 34 1005.3
20260503195516 22 280 4.8 25.7 0.00 0.00 0.00 32 1005.3
20260503195017 22 286 11.3 27.4 0.00 0.00 0.00 28 1005.4
20260503194542 21 284 9.7 27.4 0.00 0.00 0.00 30 1005.4
20260503194016 22 282 8.0 27.4 0.00 0.00 0.00 32 1005.5
20260503193519 22 273 9.7 24.1 0.00 0.00 0.00 34 1005.4
20260503193046 22 26 4.8 24.1 0.00 0.00 0.00 39 1005.3
20260503192516 22 265 11.3 24.1 0.00 0.00 0.00 35 1005.6
20260503192020 22 347 11.3 22.5 0.00 0.00 0.00 38 1005.4
20260503191535 21 292 6.4 22.5 0.00 0.00 0.00 34 1005.3
20260503191019 22 268 9.7 24.1 0.00 0.00 0.00 31 1005.5
20260503190520 22 286 11.3 24.1 0.00 0.00 0.00 34 1005.4
20260503190037 22 286 11.3 24.1 0.00 0.00 0.00 36 1005.4
20260503185516 22 286 6.4 24.1 0.00 0.00 0.00 36 1005.5
20260503185019 22 341 9.7 24.1 0.00 0.00 0.00 37 1005.5
20260503184548 22 306 9.7 24.1 0.00 0.00 0.00 38 1005.6
20260503184020 22 277 9.7 25.7 0.00 0.00 0.00 39 1005.6
20260503183517 22 274 4.8 25.7 0.00 0.00 0.00 39 1005.7
20260503183057 21 299 4.8 22.5 0.00 0.00 0.00 39 1005.6
20260503182518 21 355 8.0 22.5 0.00 0.00 0.00 42 1005.7
20260503182018 21 34 6.4 24.1 0.00 0.00 0.00 40 1005.7
20260503181537 21 17 11.3 24.1 0.00 0.00 0.00 40 1005.7
20260503181019 21 0 9.7 24.1 0.00 0.00 0.00 38 1005.8
20260503180517 21 266 4.8 24.1 0.00 0.00 0.00 41 1005.7
20260503180043 21 276 8.0 24.1 0.00 0.00 0.00 42 1005.8
20260503175516 21 275 6.4 22.5 0.00 0.00 0.00 40 1005.8
20260503175018 21 305 9.7 22.5 0.00 0.00 0.00 39 1005.9
20260503174536 21 281 6.4 19.3 0.00 0.00 0.00 41 1005.9
20260503174016 21 273 4.8 22.5 0.00 0.00 0.00 44 1006.0
20260503173516 21 30 6.4 22.5 0.00 0.00 0.00 36 1006.0
20260503173059 21 306 6.4 22.5 0.00 0.00 0.00 40 1005.9
20260503172515 20 272 8.0 25.7 0.00 0.00 0.00 39 1006.0
20260503172018 20 360 8.0 25.7 0.00 0.00 0.00 43 1006.2
20260503171541 21 17 8.0 22.5 0.00 0.00 0.00 37 1006.3
20260503171019 20 355 4.8 22.5 0.00 0.00 0.00 39 1006.2
20260503170516 20 352 3.2 27.4 0.00 0.00 0.00 45 1006.1
20260503150518 15 30 3.2 22.5 0.00 0.00 0.00 53 1005.7
20260503140105 12 344 3.2 14.5 0.00 0.00 0.00 56 1005.5
20260503131016 11 203 4.8 11.3 0.00 0.00 0.00 57 1005.2
20260503130519 11 229 3.2 8.0 0.00 0.00 0.00 58 1005.2
20260503110516 10 0 1.6 9.7 0.00 0.00 0.00 57 1004.3
20260503081539 12 196 4.8 22.5 0.00 0.00 0.00 57 1005.4
20260503081019 12 193 3.2 16.1 0.00 0.00 0.00 58 1005.5
20260503080518 12 191 4.8 16.1 0.00 0.00 0.00 58 1005.4
20260503072517 12 174 3.2 12.9 0.00 0.00 0.00 60 1006.1
20260503072017 12 153 1.6 11.3 0.00 0.00 0.00 59 1006.2
20260503071539 12 153 3.2 14.5 0.00 0.00 0.00 59 1006.3
20260503071018 12 162 4.8 14.5 0.00 0.00 0.00 59 1006.3
20260503070518 12 180 4.8 14.5 0.00 0.00 0.00 60 1006.4
20260503055018 13 182 1.6 12.9 0.00 0.00 0.00 50 1007.8
20260503054538 13 192 4.8 14.5 0.00 0.00 0.00 49 1007.8
20260503054021 13 192 3.2 14.5 0.00 0.00 0.00 50 1007.7
20260503053517 13 175 4.8 14.5 0.00 0.00 0.00 49 1007.8
20260503053037 13 0 3.2 16.1 0.00 0.00 0.00 49 1007.8
20260503052521 13 0 4.8 16.1 0.00 0.00 0.00 49 1007.9
20260503052017 13 194 3.2 14.5 0.00 0.00 0.00 49 1007.9
20260503051540 13 0 4.8 14.5 0.00 0.00 0.00 49 1007.8
20260503051019 13 175 4.8 14.5 0.00 0.00 0.00 49 1007.9
20260503050519 13 184 3.2 14.5 0.00 0.00 0.00 49 1007.9
20260503050038 13 157 1.6 12.9 0.00 0.00 0.00 49 1008.0
20260503045517 13 173 3.2 12.9 0.00 0.00 0.00 49 1008.1
20260503045018 13 179 3.2 12.9 0.00 0.00 0.00 49 1008.0
20260503044537 13 0 1.6 14.5 0.00 0.00 0.00 49 1008.1
20260503044017 13 190 3.2 14.5 0.00 0.00 0.00 48 1008.2
20260503043517 14 0 3.2 9.7 0.00 0.00 0.00 48 1008.4
20260503043041 14 173 1.6 9.7 0.00 0.00 0.00 48 1008.5
20260503042517 14 170 3.2 9.7 0.00 0.00 0.00 48 1008.5
20260503042019 14 188 1.6 8.0 0.00 0.00 0.00 47 1008.6
20260503041537 14 182 1.6 11.3 0.00 0.00 0.00 47 1008.7
20260503041022 15 0 1.6 11.3 0.00 0.00 0.00 46 1008.8
20260503040517 15 157 3.2 9.7 0.00 0.00 0.00 45 1008.9